COSMOS 2501 [GLONASS-K] 1 40315U 14075A 21112.49546539 .00000014 00000-0 00000-0 0 9997 2 40315 63.7881 255.9346 0016157 206.6201 95.6120 2.13101389 49755 FREGAT R/B 1 40316U 14075B 21112.67434323 .00000016 00000-0 00000-0 0 9997 2 40316 63.7835 259.6228 0053543 131.4385 228.9994 2.08635601 48700